Weather observations for the past three days for
Baltimore / Martin
Metric (Imperial)
Date Time (edt) Wind (kph) Vis. (km) Weather Sky Cond. Temperature (ºC) Relative Humidity Wind Chill (°C) Heat Index (°C) Pressure Precipitation (cm)
Air Dwpt 6 hour altimeter (cm) sea level (mb) 1 hr 3 hr 6 hr
Max. Min.
02 12:45 Calm 16.09 Overcast OVC018 0 0 0% 76.53 0.0
02 11:45 SE 13 16.09 Overcast OVC015 27 21 70% 29 76.48 0.0
02 10:45 E 7 16.09 Overcast OVC017 26 21 74% 27 76.5 0.0
02 08:45 SE 7 16.09 Mostly Cloudy BKN009 25 22 83% 26 76.45 0.0
02 07:45 E 6 16.09 Mostly Cloudy BKN007 24 22 89% 24 76.4 0.0
02 06:45 Calm 16.09 Partly Cloudy SCT110 23 21 89% 76.4 0.0
02 05:45 Calm 16.09 Partly Cloudy SCT120 23 21 89% 76.35 0.0
02 05:15 Calm 16.09 Partly Cloudy SCT110 23.3 21.5 90% 76.35 0.0
02 04:55 Calm 16.09 Partly Cloudy SCT120 23.2 21.3 89% 76.35 0.0
02 04:35 Calm 16.09 Partly Cloudy SCT120 24 21.8 88% 24 76.35 0.0
02 04:15 Calm 16.09 Partly Cloudy SCT120 23.7 21.8 89% 76.35 0.0
02 03:55 Calm 16.09 Mostly Cloudy BKN120 23.3 21.7 91% 76.35 0.0
02 03:35 Calm 16.09 Mostly Cloudy BKN120 23.3 21.6 90% 76.35 0.0
02 02:55 Calm 16.09 Mostly Cloudy SCT013 BKN110 24.8 21.6 82% 25 76.33 0.0
02 02:35 Calm 16.09 Partly Cloudy SCT110 25 21.5 81% 26 76.3 0.0
02 02:15 E 6 16.09 Partly Cloudy SCT110 25.1 21.6 81% 26 76.28 0.0
02 01:55 Calm 16.09 Partly Cloudy SCT110 25.7 20.8 31.8 25.7 74% 27 76.28 0.0
02 01:35 Calm 16.09 Rain BKN110 26 21 74% 27 76.28 0.0
02 01:15 Calm 16.09 Mostly Cloudy SCT036 SCT050 BKN110 26 21.7 77% 28 76.33 0.0
02 00:55 N 6 16.09 Overcast SCT036 BKN065 OVC110 26 22 79% 28 76.35 0.0
02 00:35 Calm 16.09 Mostly Cloudy SCT090 BKN110 26 22.2 80% 28 76.33 0.0
02 00:15 Calm 16.09 Partly Cloudy SCT110 26 22.1 79% 28 76.28 0.0
01 23:55 Calm 16.09 Mostly Cloudy SCT095 BKN120 26 22 79% 28 76.28 0.0
01 23:35 Calm 16.09 Overcast SCT070 BKN095 OVC120 26.2 22 78% 28 76.28 0.0
01 23:15 E 6 16.09 Overcast SCT070 BKN095 OVC110 26.1 22 78% 28 76.23 0.0
01 22:55 E 7 16.09 Overcast SCT080 BKN095 OVC110 26.5 22 76% 28 76.23 0.0
01 22:35 E 11 16.09 Overcast SCT065 OVC085 28 21.8 69% 31 76.17 0.0
01 22:15 E 9 16.09 Overcast SCT065 BKN085 OVC110 29.1 22.1 66% 32 76.17 0.0
01 21:45 NW 13 16.09 Mostly Cloudy BKN110 32 20 49% 34 76.12 0.0
01 20:45 Calm 16.09 Partly Cloudy SCT075 29 24 74% 34 76.1 0.0
01 19:45 S 6 16.09 Mostly Cloudy SCT060 BKN100 30 24 70% 35 76 0.0
01 18:45 SW 9 16.09 Partly Cloudy SCT060 SCT110 31 23 62% 35 76.05 0.0
01 16:45 W 13 16.09 NULL NULL 35 18 36% 36 76.1 0.0
01 15:46 W 13 16.09 Partly Cloudy SCT050 35 20 41% 38 76.1 0.0
01 14:45 Calm 16.09 Partly Cloudy SCT110 34 20 44% 36 76.17 0.0
01 13:49 W 7 16.09 Fair CLR 33 21 49% 36 76.17 0.0
01 12:45 W 13 16.09 Mostly Cloudy SCT065 BKN120 32 20 49% 34 76.2 0.0
01 11:45 W 15 16.09 Fair CLR 32 20 49% 34 76.25 0.0
01 10:46 NW 9 16.09 Partly Cloudy SCT110 31 21 55% 34 76.28 0.0
01 09:45 Calm 16.09 Mostly Cloudy BKN150 29 22 66% 32 76.25 0.0
01 08:45 W 6 16.09 Partly Cloudy SCT120 28 23 74% 31 76.33 0.0
01 07:45 Calm 9.66 Fog/Mist SCT110 26 23 84% 28 76.3 0.0
01 06:45 Calm 9.66 Fog/Mist BKN120 23 22 94% 76.3 0.0
01 05:45 Calm 16.09 Partly Cloudy SCT110 24 23 94% 23 76.28 0.0
01 05:15 Calm 16.09 Partly Cloudy SCT120 24.4 22.7 90% 24 76.3 0.0
01 04:35 Calm 16.09 Mostly Cloudy BKN120 24.2 22.5 90% 24 76.3 0.0
01 04:15 Calm 16.09 Mostly Cloudy BKN120 24.8 22.5 87% 25 76.3 0.0
01 03:55 Calm 16.09 Partly Cloudy SCT110 25.4 22.7 85% 27 76.28 0.0
01 03:35 Calm 16.09 Mostly Cloudy BKN110 25.5 23 86% 27 76.3 0.0
01 03:15 Calm 16.09 Mostly Cloudy BKN110 24.6 23 91% 25 76.3 0.0
01 02:55 Calm 16.09 Partly Cloudy SCT120 24.6 22.7 89% 25 76.33 0.0
01 02:35 Calm 16.09 Partly Cloudy SCT110 24.7 22.8 89% 25 76.35 0.0
01 02:15 Calm 16.09 Partly Cloudy SCT110 25.1 22.9 88% 26 76.35 0.0
01 01:55 Calm 16.09 Partly Cloudy SCT110 25.5 23 26.8 25.1 86% 27 76.35 0.0
01 01:35 Calm 16.09 Partly Cloudy SCT110 25.5 23 86% 27 76.35 0.0
01 01:15 Calm 16.09 Fair CLR 25.5 23 86% 27 76.38 0.0
01 00:55 Calm 16.09 Partly Cloudy SCT090 25.4 23.4 89% 27 76.4 0.0
01 00:35 Calm 16.09 Overcast OVC100 25.5 23.1 87% 27 76.4 0.0
01 00:15 Calm 16.09 Overcast OVC110 25.3 23.1 88% 26 76.4 0.0
31 23:55 Calm 16.09 Mostly Cloudy BKN110 25.5 23.1 87% 27 76.4 0.0
31 23:35 Calm 16.09 Partly Cloudy SCT110 25.7 23 85% 27 76.4 0.0
31 23:15 Calm 16.09 Partly Cloudy SCT110 26 23.1 84% 28 76.4 0.0
31 22:55 S 6 16.09 Mostly Cloudy BKN110 25.7 23 85% 27 76.43 0.0
31 22:35 Calm 16.09 Mostly Cloudy BKN110 26.2 23 83% 28 76.43 0.0
31 22:15 S 7 16.09 Partly Cloudy SCT110 26.5 22.8 80% 29 76.4 0.0
31 21:45 S 11 16.09 Partly Cloudy SCT110 26 22 79% 28 76.4 0.0
31 20:43 Calm 16.09 Partly Cloudy SCT120 27 22 74% 29 76.38 0.0
31 19:45 SE 6 16.09 Partly Cloudy SCT070 27 21 70% 29 76.38 0.0
31 18:45 SE 9 16.09 Mostly Cloudy BKN065 27 21 70% 29 76.43 0.0
31 16:45 Calm 16.09 Mostly Cloudy BKN033 28 20 62% 30 76.43 0.0
31 15:45 Calm 16.09 A Few Clouds FEW033 30 20 55% 32 76.45 0.0
31 14:45 SW 7 16.09 Mostly Cloudy BKN120 29 20 58% 31 76.5 0.0
31 13:45 Calm 16.09 Partly Cloudy SCT110 28 20 62% 30 76.5 0.0
31 12:44 Calm 16.09 Partly Cloudy SCT110 28 20 62% 30 76.53 0.0
31 10:45 E 7 16.09 Partly Cloudy SCT100 26 20 70% 27 76.56 0.0
31 09:45 Calm 16.09 Light Rain BKN030 OVC110 25 21 79% 26 76.56 0.0
31 08:53 Vrbl 7 16.09 Overcast FEW028 OVC120 25 21 79% 26 76.56 0.0
31 07:45 Calm 16.09 Mostly Cloudy BKN028 BKN080 25 22 83% 26 76.5 0.0
31 06:43 Calm 16.09 Partly Cloudy SCT080 SCT120 24 23 94% 23 76.45 0.0
31 05:53 Calm 16.09 Mostly Cloudy SCT006 BKN085 24 23 94% 23 76.43 0.0
31 05:15 Calm 16.09 Partly Cloudy SCT085 24 22.1 89% 24 76.43 0.0
31 04:35 Calm 16.09 Fair CLR 24.1 22.1 89% 24 76.43 0.0
31 04:15 Calm 16.09 Fair CLR 23.9 21.5 86% 24 76.43 0.0
31 03:55 Calm 16.09 Fair CLR 24.1 21.7 87% 24 76.43 0.0
31 03:35 Calm 16.09 Partly Cloudy SCT120 24 21.8 88% 24 76.43 0.0
31 03:15 Calm 16.09 Partly Cloudy SCT110 24.6 22.1 86% 25 76.43 0.0
31 02:55 Calm 16.09 Fair CLR 24.7 22 85% 25 76.43 0.0
31 02:35 Calm 16.09 Fair CLR 24.5 22.1 87% 25 76.43 0.0
31 02:15 Calm 16.09 Fair CLR 24.9 22 84% 26 76.45 0.0
31 01:55 Calm 16.09 Partly Cloudy SCT100 25 21.6 27.4 24.5 81% 26 76.45 0.0
31 01:35 Calm 16.09 Mostly Cloudy BKN110 24.7 21.3 81% 25 76.45 0.0
31 01:15 Calm 16.09 Mostly Cloudy BKN120 24.7 21.3 81% 25 76.45 0.0
31 00:55 Calm 16.09 Fair CLR 25 21.5 81% 26 76.45 0.0
31 00:35 Calm 16.09 Partly Cloudy SCT120 25.6 21.5 78% 27 76.43 0.0
31 00:15 Calm 16.09 Mostly Cloudy SCT100 BKN120 26 21.5 76% 28 76.45 0.0
30 23:55 Calm 16.09 Mostly Cloudy BKN110 26.1 21.3 75% 28 76.45 0.0
30 23:35 Calm 16.09 Overcast OVC110 26.3 21.2 74% 28 76.45 0.0
30 23:15 Calm 16.09 Mostly Cloudy BKN120 26.5 21.5 74% 28 76.48 0.0
30 22:55 Calm 16.09 Fair CLR 26.7 21.9 75% 29 76.48 0.0
30 22:35 SW 6 16.09 Fair CLR 26.6 23.1 81% 29 76.48 0.0
30 22:15 S 6 16.09 Partly Cloudy SCT120 26.6 23 81% 29 76.48 0.0
30 21:45 SW 11 16.09 Mostly Cloudy BKN110 27 13 42% 27 76.48 0.0
30 20:45 SW 11 16.09 Mostly Cloudy BKN110 27 21 70% 29 76.48 0.0
30 19:45 S 7 16.09 Partly Cloudy SCT110 27 22 74% 29 76.43 0.0
30 18:45 S 11 16.09 Mostly Cloudy SCT049 BKN120 28 22 70% 31 76.43 0.0
30 17:45 S 13 16.09 Mostly Cloudy BKN045 28 22 70% 31 76.43 0.0
30 16:45 S 22 16.09 Mostly Cloudy BKN048 BKN055 BKN065 29 21 62% 31 76.43 0.0
30 15:45 SW 13 16.09 Mostly Cloudy SCT043 SCT050 BKN110 31 19 49% 32 76.45 0.0
30 14:45 W 17 G 26 16.09 Mostly Cloudy SCT043 BKN100 31 19 49% 32 76.53 0.0
Date Time (edt) Wind (kph) Vis. (km) Weather Sky Cond. Air Dwpt Max. Min. Relative Humidity Wind Chill (°C) Heat Index (°C) altimeter (cm) sea level (mb) 1 hr 3 hr 6 hr
6 hour
Temperature (ºC) Pressure Precipitation (cm)